| time (UTC) | temp F | wind direction | speed MPH | gust MPH | rain 1hr in | rain 24hr in | rain mn in | humidity % | barometer mb |
| 20260507043053 | 75 | 360 | 0.0 | 0.0 | 0.00 | 0.00 | 0.00 | 22 | 1007.4 |
| 20260507042531 | 75 | 360 | 0.0 | 0.0 | 0.00 | 0.00 | 0.00 | 21 | 1007.4 |
| 20260507042012 | 75 | 360 | 0.0 | 0.0 | 0.00 | 0.00 | 0.00 | 21 | 1007.3 |
| 20260507041607 | 75 | 360 | 0.0 | 0.0 | 0.00 | 0.00 | 0.00 | 21 | 1007.3 |
| 20260507041040 | 75 | 360 | 0.0 | 0.0 | 0.00 | 0.00 | 0.00 | 21 | 1007.2 |
| 20260507040518 | 75 | 360 | 0.0 | 0.0 | 0.00 | 0.00 | 0.00 | 21 | 1007.2 |
| 20260507040000 | 76 | 360 | 0.0 | 0.0 | 0.00 | 0.00 | 0.00 | 20 | 1007.4 |
| 20260507035548 | 76 | 360 | 0.0 | 0.0 | 0.00 | 0.00 | 0.00 | 20 | 1007.3 |
| 20260507035030 | 76 | 360 | 0.0 | 0.0 | 0.00 | 0.00 | 0.00 | 21 | 1007.2 |
| 20260507034515 | 76 | 360 | 0.0 | 0.0 | 0.00 | 0.00 | 0.00 | 21 | 1007.0 |
| 20260507034102 | 77 | 360 | 0.0 | 0.0 | 0.00 | 0.00 | 0.00 | 21 | 1007.0 |
| 20260507033544 | 78 | 360 | 0.0 | 0.0 | 0.00 | 0.00 | 0.00 | 20 | 1006.9 |
| 20260507033022 | 78 | 360 | 0.0 | 0.0 | 0.00 | 0.00 | 0.00 | 21 | 1006.7 |
| 20260507032502 | 79 | 360 | 0.0 | 0.0 | 0.00 | 0.00 | 0.00 | 20 | 1006.6 |
| 20260507032052 | 79 | 360 | 0.0 | 0.0 | 0.00 | 0.00 | 0.00 | 20 | 1006.6 |
| 20260507031533 | 79 | 360 | 0.0 | 0.0 | 0.00 | 0.00 | 0.00 | 20 | 1006.6 |
| 20260507031016 | 79 | 360 | 0.0 | 0.0 | 0.00 | 0.00 | 0.00 | 20 | 1006.6 |
| 20260507030600 | 79 | 360 | 0.0 | 0.0 | 0.00 | 0.00 | 0.00 | 20 | 1006.5 |
| 20260507030041 | 80 | 360 | 0.0 | 0.0 | 0.00 | 0.00 | 0.00 | 20 | 1006.4 |
| 20260507025521 | 80 | 360 | 0.0 | 0.0 | 0.00 | 0.00 | 0.00 | 20 | 1006.4 |
| 20260507025003 | 80 | 360 | 0.0 | 0.0 | 0.00 | 0.00 | 0.00 | 20 | 1006.4 |
| 20260507024547 | 81 | 360 | 0.0 | 0.0 | 0.00 | 0.00 | 0.00 | 20 | 1006.3 |
| 20260507024031 | 81 | 360 | 0.0 | 0.0 | 0.00 | 0.00 | 0.00 | 19 | 1006.3 |
| 20260507023517 | 81 | 360 | 0.0 | 0.0 | 0.00 | 0.00 | 0.00 | 19 | 1006.2 |
| 20260507023100 | 82 | 118 | 0.0 | 0.0 | 0.00 | 0.00 | 0.00 | 18 | 1006.2 |
| 20260507022539 | 82 | 147 | 0.0 | 0.0 | 0.00 | 0.00 | 0.00 | 19 | 1006.1 |
| 20260507022019 | 83 | 360 | 0.0 | 0.0 | 0.00 | 0.00 | 0.00 | 18 | 1006.0 |
| 20260507021602 | 83 | 360 | 0.0 | 0.0 | 0.00 | 0.00 | 0.00 | 18 | 1005.8 |
| 20260507021042 | 83 | 360 | 0.0 | 0.0 | 0.00 | 0.00 | 0.00 | 18 | 1005.8 |
| 20260507020520 | 83 | 360 | 0.0 | 0.0 | 0.00 | 0.00 | 0.00 | 18 | 1005.8 |
| 20260507020105 | 84 | 360 | 0.0 | 0.0 | 0.00 | 0.00 | 0.00 | 18 | 1005.8 |
| 20260507015544 | 84 | 111 | 0.0 | 0.0 | 0.00 | 0.00 | 0.00 | 18 | 1006.1 |
| 20260507015024 | 84 | 110 | 0.0 | 0.0 | 0.00 | 0.00 | 0.00 | 18 | 1006.1 |
| 20260507014503 | 83 | 111 | 0.0 | 0.0 | 0.00 | 0.00 | 0.00 | 18 | 1006.0 |
| 20260507014048 | 84 | 93 | 1.0 | 0.0 | 0.00 | 0.00 | 0.00 | 17 | 1006.0 |
| 20260507013527 | 84 | 107 | 1.0 | 0.0 | 0.00 | 0.00 | 0.00 | 17 | 1006.0 |
| 20260507013006 | 85 | 113 | 0.0 | 0.0 | 0.00 | 0.00 | 0.00 | 17 | 1005.9 |
| 20260507012553 | 85 | 207 | 0.0 | 0.0 | 0.00 | 0.00 | 0.00 | 17 | 1005.9 |
| 20260507012032 | 85 | 76 | 0.0 | 0.0 | 0.00 | 0.00 | 0.00 | 17 | 1005.9 |
| 20260507011518 | 85 | 234 | 0.0 | 0.0 | 0.00 | 0.00 | 0.00 | 16 | 1005.9 |
| 20260507011053 | 85 | 238 | 0.0 | 0.0 | 0.00 | 0.00 | 0.00 | 17 | 1005.8 |
| 20260507010538 | 85 | 105 | 0.0 | 0.0 | 0.00 | 0.00 | 0.00 | 17 | 1005.9 |
| 20260507010021 | 85 | 186 | 0.0 | 0.0 | 0.00 | 0.00 | 0.00 | 16 | 1005.8 |
| 20260507005504 | 86 | 297 | 1.0 | 0.0 | 0.00 | 0.00 | 0.00 | 17 | 1006.1 |
| 20260507005053 | 86 | 130 | 1.0 | 0.0 | 0.00 | 0.00 | 0.00 | 17 | 1006.3 |
| 20260507004532 | 86 | 143 | 1.0 | 0.0 | 0.00 | 0.00 | 0.00 | 17 | 1006.3 |
| 20260507004010 | 85 | 98 | 1.0 | 0.0 | 0.00 | 0.00 | 0.00 | 17 | 1006.3 |
| 20260507003554 | 85 | 258 | 1.0 | 0.0 | 0.00 | 0.00 | 0.00 | 16 | 1006.4 |
| 20260507003032 | 85 | 93 | 1.0 | 0.0 | 0.00 | 0.00 | 0.00 | 16 | 1006.4 |
| 20260507002511 | 84 | 83 | 1.0 | 0.0 | 0.00 | 0.00 | 0.00 | 17 | 1006.3 |
| 20260507002053 | 84 | 88 | 2.0 | 0.0 | 0.00 | 0.00 | 0.00 | 17 | 1006.3 |
| 20260507001543 | 84 | 49 | 1.0 | 0.0 | 0.00 | 0.00 | 0.00 | 17 | 1006.3 |
| 20260507001010 | 85 | 91 | 1.0 | 0.0 | 0.00 | 0.00 | 0.00 | 17 | 1006.3 |
| 20260507000559 | 85 | 126 | 2.0 | 0.0 | 0.00 | 0.00 | 0.00 | 17 | 1006.3 |
| 20260507000041 | 86 | 95 | 2.0 | 0.0 | 0.00 | 0.00 | 0.00 | 17 | 1006.3 |
| 20260506235522 | 84 | 101 | 1.0 | 0.0 | 0.00 | 0.00 | 0.00 | 17 | 1006.1 |
| 20260506235105 | 86 | 302 | 1.0 | 0.0 | 0.00 | 0.00 | 0.00 | 17 | 1006.1 |
| 20260506234548 | 84 | 15 | 2.0 | 0.0 | 0.00 | 0.00 | 0.00 | 18 | 1006.2 |
| 20260506234031 | 85 | 108 | 2.0 | 0.0 | 0.00 | 0.00 | 0.00 | 17 | 1006.2 |
| 20260506233509 | 85 | 360 | 1.0 | 0.0 | 0.00 | 0.00 | 0.00 | 18 | 1006.2 |
| 20260506233052 | 84 | 360 | 1.0 | 0.0 | 0.00 | 0.00 | 0.00 | 17 | 1006.3 |
| 20260506232534 | 86 | 360 | 1.0 | 0.0 | 0.00 | 0.00 | 0.00 | 17 | 1006.2 |
| 20260506232015 | 87 | 360 | 1.0 | 0.0 | 0.00 | 0.00 | 0.00 | 16 | 1006.3 |
| 20260506231558 | 86 | 360 | 1.0 | 0.0 | 0.00 | 0.00 | 0.00 | 17 | 1006.4 |
| 20260506231039 | 86 | 123 | 1.0 | 0.0 | 0.00 | 0.00 | 0.00 | 17 | 1006.3 |
| 20260506230518 | 86 | 360 | 1.0 | 0.0 | 0.00 | 0.00 | 0.00 | 17 | 1006.4 |
| 20260506225545 | 87 | 360 | 2.0 | 0.0 | 0.00 | 0.00 | 0.00 | 17 | 1006.4 |
| 20260506225023 | 84 | 49 | 3.0 | 0.0 | 0.00 | 0.00 | 0.00 | 19 | 1006.6 |
| 20260506224509 | 84 | 360 | 2.0 | 0.0 | 0.00 | 0.00 | 0.00 | 18 | 1006.8 |
| 20260506224050 | 85 | 360 | 2.0 | 0.0 | 0.00 | 0.00 | 0.00 | 18 | 1006.6 |
| 20260506223529 | 84 | 112 | 3.0 | 0.0 | 0.00 | 0.00 | 0.00 | 18 | 1006.8 |
| 20260506223011 | 84 | 105 | 3.0 | 0.0 | 0.00 | 0.00 | 0.00 | 18 | 1006.8 |
| 20260506222552 | 84 | 360 | 2.0 | 0.0 | 0.00 | 0.00 | 0.00 | 18 | 1006.8 |
| 20260506222034 | 84 | 360 | 1.0 | 0.0 | 0.00 | 0.00 | 0.00 | 18 | 1006.9 |
| 20260506221519 | 84 | 360 | 1.0 | 0.0 | 0.00 | 0.00 | 0.00 | 18 | 1007.1 |
| 20260506221105 | 85 | 360 | 0.0 | 0.0 | 0.00 | 0.00 | 0.00 | 18 | 1007.1 |
| 20260506220542 | 84 | 360 | 2.0 | 0.0 | 0.00 | 0.00 | 0.00 | 19 | 1007.2 |
| 20260506220021 | 83 | 360 | 2.0 | 0.0 | 0.00 | 0.00 | 0.00 | 18 | 1007.3 |
| 20260506215501 | 84 | 360 | 2.0 | 0.0 | 0.00 | 0.00 | 0.00 | 19 | 1007.3 |
| 20260506215048 | 85 | 360 | 1.0 | 0.0 | 0.00 | 0.00 | 0.00 | 18 | 1007.3 |
| 20260506214525 | 86 | 360 | 1.0 | 0.0 | 0.00 | 0.00 | 0.00 | 18 | 1007.3 |
| 20260506214010 | 86 | 360 | 1.0 | 0.0 | 0.00 | 0.00 | 0.00 | 17 | 1007.3 |
| 20260506213556 | 86 | 360 | 2.0 | 0.0 | 0.00 | 0.00 | 0.00 | 18 | 1007.4 |
| 20260506213036 | 85 | 360 | 2.0 | 0.0 | 0.00 | 0.00 | 0.00 | 18 | 1007.5 |
| 20260506212518 | 85 | 360 | 1.0 | 0.0 | 0.00 | 0.00 | 0.00 | 19 | 1007.6 |
| 20260506212058 | 86 | 360 | 2.0 | 0.0 | 0.00 | 0.00 | 0.00 | 18 | 1007.6 |
| 20260506211537 | 84 | 360 | 2.0 | 0.0 | 0.00 | 0.00 | 0.00 | 19 | 1007.7 |
| 20260506211015 | 84 | 360 | 3.0 | 0.0 | 0.00 | 0.00 | 0.00 | 19 | 1007.9 |
| 20260506210601 | 82 | 360 | 3.0 | 0.0 | 0.00 | 0.00 | 0.00 | 20 | 1008.0 |
| 20260506210050 | 83 | 360 | 3.0 | 0.0 | 0.00 | 0.00 | 0.00 | 19 | 1008.0 |
| 20260506205526 | 84 | 360 | 2.0 | 0.0 | 0.00 | 0.00 | 0.00 | 19 | 1007.8 |
| 20260506205005 | 84 | 360 | 1.0 | 0.0 | 0.00 | 0.00 | 0.00 | 20 | 1007.9 |
| 20260506204554 | 82 | 360 | 1.0 | 0.0 | 0.00 | 0.00 | 0.00 | 20 | 1008.1 |
| 20260506204034 | 85 | 360 | 2.0 | 0.0 | 0.00 | 0.00 | 0.00 | 19 | 1008.1 |
| 20260506203518 | 82 | 360 | 4.0 | 0.0 | 0.00 | 0.00 | 0.00 | 21 | 1008.2 |
| 20260506203144 | 82 | 360 | 3.0 | 0.0 | 0.00 | 0.00 | 0.00 | 20 | 1008.2 |
| 20260506202543 | 84 | 360 | 2.0 | 0.0 | 0.00 | 0.00 | 0.00 | 19 | 1008.1 |
| 20260506202024 | 82 | 360 | 2.0 | 0.0 | 0.00 | 0.00 | 0.00 | 20 | 1008.3 |
| 20260506201502 | 82 | 360 | 1.0 | 0.0 | 0.00 | 0.00 | 0.00 | 20 | 1008.4 |
| 20260506201042 | 83 | 360 | 2.0 | 0.0 | 0.00 | 0.00 | 0.00 | 21 | 1008.4 |
| 20260506200518 | 82 | 360 | 3.0 | 0.0 | 0.00 | 0.00 | 0.00 | 20 | 1008.5 |
| 20260506195540 | 80 | 360 | 2.0 | 0.0 | 0.00 | 0.00 | 0.00 | 22 | 1008.7 |
| 20260506195022 | 80 | 360 | 2.0 | 0.0 | 0.00 | 0.00 | 0.00 | 21 | 1008.7 |
| 20260506194504 | 82 | 360 | 2.0 | 0.0 | 0.00 | 0.00 | 0.00 | 20 | 1008.7 |
| 20260506194045 | 80 | 360 | 2.0 | 0.0 | 0.00 | 0.00 | 0.00 | 21 | 1008.8 |
| 20260506193522 | 78 | 360 | 2.0 | 0.0 | 0.00 | 0.00 | 0.00 | 21 | 1008.9 |
| 20260506193001 | 80 | 360 | 1.0 | 0.0 | 0.00 | 0.00 | 0.00 | 21 | 1008.9 |
| 20260506192545 | 81 | 360 | 1.0 | 0.0 | 0.00 | 0.00 | 0.00 | 21 | 1008.9 |
| 20260506192021 | 80 | 107 | 1.0 | 0.0 | 0.00 | 0.00 | 0.00 | 22 | 1009.0 |
| 20260506191503 | 79 | 198 | 2.0 | 0.0 | 0.00 | 0.00 | 0.00 | 23 | 1009.1 |
| 20260506191048 | 78 | 360 | 2.0 | 0.0 | 0.00 | 0.00 | 0.00 | 22 | 1009.2 |
| 20260506190525 | 78 | 100 | 2.0 | 0.0 | 0.00 | 0.00 | 0.00 | 23 | 1009.4 |
| 20260506190001 | 78 | 89 | 2.0 | 0.0 | 0.00 | 0.00 | 0.00 | 23 | 1009.4 |
| 20260506185546 | 79 | 55 | 2.0 | 0.0 | 0.00 | 0.00 | 0.00 | 23 | 1009.5 |
| 20260506185026 | 78 | 360 | 2.0 | 0.0 | 0.00 | 0.00 | 0.00 | 22 | 1009.6 |
| 20260506184504 | 79 | 360 | 2.0 | 0.0 | 0.00 | 0.00 | 0.00 | 23 | 1009.6 |
| 20260506184052 | 77 | 92 | 2.0 | 0.0 | 0.00 | 0.00 | 0.00 | 23 | 1009.7 |
| 20260506183528 | 77 | 85 | 2.0 | 0.0 | 0.00 | 0.00 | 0.00 | 24 | 1009.7 |
| 20260506183009 | 77 | 360 | 2.0 | 0.0 | 0.00 | 0.00 | 0.00 | 23 | 1009.8 |
| 20260506182551 | 77 | 360 | 3.0 | 0.0 | 0.00 | 0.00 | 0.00 | 23 | 1009.8 |
| 20260506182033 | 77 | 87 | 2.0 | 0.0 | 0.00 | 0.00 | 0.00 | 24 | 1009.7 |
| 20260506181509 | 78 | 124 | 2.0 | 0.0 | 0.00 | 0.00 | 0.00 | 23 | 1009.8 |
| 20260506181059 | 76 | 124 | 3.0 | 0.0 | 0.00 | 0.00 | 0.00 | 24 | 1009.8 |
| 20260506180538 | 77 | 81 | 3.0 | 0.0 | 0.00 | 0.00 | 0.00 | 24 | 1009.8 |
| 20260506180014 | 76 | 55 | 3.0 | 0.0 | 0.00 | 0.00 | 0.00 | 24 | 1010.0 |
| 20260506175557 | 76 | 106 | 3.0 | 0.0 | 0.00 | 0.00 | 0.00 | 25 | 1009.8 |
| 20260506175030 | 75 | 98 | 3.0 | 0.0 | 0.00 | 0.00 | 0.00 | 26 | 1009.7 |
| 20260506174514 | 75 | 80 | 3.0 | 0.0 | 0.00 | 0.00 | 0.00 | 25 | 1009.7 |
| 20260506174054 | 75 | 104 | 2.0 | 0.0 | 0.00 | 0.00 | 0.00 | 25 | 1009.7 |
| 20260506173531 | 75 | 128 | 3.0 | 0.0 | 0.00 | 0.00 | 0.00 | 25 | 1009.7 |
| 20260506173008 | 74 | 113 | 4.0 | 0.0 | 0.00 | 0.00 | 0.00 | 25 | 1009.7 |
| 20260506172550 | 74 | 181 | 4.0 | 0.0 | 0.00 | 0.00 | 0.00 | 26 | 1009.9 |
| 20260506172025 | 73 | 113 | 4.0 | 0.0 | 0.00 | 0.00 | 0.00 | 27 | 1009.9 |
| 20260506171506 | 74 | 111 | 3.0 | 0.0 | 0.00 | 0.00 | 0.00 | 26 | 1009.8 |
| 20260506171043 | 73 | 122 | 4.0 | 0.0 | 0.00 | 0.00 | 0.00 | 27 | 1009.8 |
| 20260506170526 | 72 | 105 | 4.0 | 0.0 | 0.00 | 0.00 | 0.00 | 27 | 1009.8 |
| 20260506170001 | 73 | 132 | 3.0 | 0.0 | 0.00 | 0.00 | 0.00 | 27 | 1009.9 |
| 20260506165540 | 73 | 119 | 3.0 | 0.0 | 0.00 | 0.00 | 0.00 | 27 | 1009.7 |
| 20260506165018 | 72 | 142 | 3.0 | 0.0 | 0.00 | 0.00 | 0.00 | 28 | 1009.9 |
| 20260506164600 | 71 | 85 | 3.0 | 0.0 | 0.00 | 0.00 | 0.00 | 28 | 1009.9 |
| 20260506164035 | 70 | 96 | 3.0 | 0.0 | 0.00 | 0.00 | 0.00 | 29 | 1010.0 |
| 20260506163510 | 71 | 101 | 4.0 | 0.0 | 0.00 | 0.00 | 0.00 | 28 | 1010.0 |
| 20260506163112 | 70 | 118 | 4.0 | 0.0 | 0.00 | 0.00 | 0.00 | 30 | 1009.9 |
| 20260506162531 | 70 | 105 | 3.0 | 0.0 | 0.00 | 0.00 | 0.00 | 30 | 1010.0 |
| 20260506162010 | 70 | 62 | 3.0 | 0.0 | 0.00 | 0.00 | 0.00 | 30 | 1010.0 |
| 20260506161551 | 70 | 114 | 3.0 | 0.0 | 0.00 | 0.00 | 0.00 | 30 | 1009.9 |
| 20260506161027 | 70 | 98 | 3.0 | 0.0 | 0.00 | 0.00 | 0.00 | 30 | 1009.9 |
| 20260506160505 | 69 | 95 | 4.0 | 0.0 | 0.00 | 0.00 | 0.00 | 31 | 1010.0 |
| 20260506160043 | 68 | 159 | 4.0 | 0.0 | 0.00 | 0.00 | 0.00 | 32 | 1010.0 |
| 20260506155519 | 68 | 91 | 4.0 | 0.0 | 0.00 | 0.00 | 0.00 | 32 | 1009.6 |
| 20260506155103 | 68 | 102 | 4.0 | 0.0 | 0.00 | 0.00 | 0.00 | 32 | 1009.6 |
| 20260506154541 | 67 | 82 | 4.0 | 0.0 | 0.00 | 0.00 | 0.00 | 33 | 1009.4 |
| 20260506154015 | 67 | 111 | 3.0 | 0.0 | 0.00 | 0.00 | 0.00 | 34 | 1009.6 |
| 20260506153557 | 67 | 92 | 3.0 | 0.0 | 0.00 | 0.00 | 0.00 | 34 | 1009.6 |
| 20260506153040 | 66 | 60 | 3.0 | 0.0 | 0.00 | 0.00 | 0.00 | 35 | 1009.7 |
| 20260506152517 | 66 | 128 | 2.0 | 0.0 | 0.00 | 0.00 | 0.00 | 34 | 1009.6 |
| 20260506152056 | 66 | 49 | 2.0 | 0.0 | 0.00 | 0.00 | 0.00 | 35 | 1009.6 |
| 20260506151540 | 65 | 107 | 3.0 | 0.0 | 0.00 | 0.00 | 0.00 | 35 | 1009.6 |
| 20260506151016 | 65 | 126 | 3.0 | 0.0 | 0.00 | 0.00 | 0.00 | 36 | 1009.5 |
| 20260506150557 | 65 | 103 | 4.0 | 0.0 | 0.00 | 0.00 | 0.00 | 37 | 1009.6 |
| 20260506150033 | 65 | 105 | 3.0 | 0.0 | 0.00 | 0.00 | 0.00 | 37 | 1009.6 |
| 20260506145510 | 64 | 110 | 3.0 | 0.0 | 0.00 | 0.00 | 0.00 | 37 | 1009.4 |
| 20260506145053 | 64 | 128 | 2.0 | 0.0 | 0.00 | 0.00 | 0.00 | 38 | 1009.5 |
| 20260506144529 | 64 | 94 | 2.0 | 0.0 | 0.00 | 0.00 | 0.00 | 38 | 1009.4 |
| 20260506144009 | 64 | 111 | 3.0 | 0.0 | 0.00 | 0.00 | 0.00 | 38 | 1009.2 |
| 20260506143553 | 63 | 97 | 2.0 | 0.0 | 0.00 | 0.00 | 0.00 | 38 | 1009.3 |
| 20260506143031 | 63 | 105 | 2.0 | 0.0 | 0.00 | 0.00 | 0.00 | 39 | 1009.3 |
| 20260506142506 | 62 | 86 | 1.0 | 0.0 | 0.00 | 0.00 | 0.00 | 38 | 1009.3 |
| 20260506142051 | 62 | 69 | 1.0 | 0.0 | 0.00 | 0.00 | 0.00 | 38 | 1009.2 |
| 20260506141527 | 61 | 318 | 0.0 | 0.0 | 0.00 | 0.00 | 0.00 | 38 | 1009.2 |
| 20260506141007 | 60 | 24 | 0.0 | 0.0 | 0.00 | 0.00 | 0.00 | 38 | 1009.3 |
| 20260506140549 | 60 | 360 | 0.0 | 0.0 | 0.00 | 0.00 | 0.00 | 39 | 1009.4 |
| 20260506140033 | 59 | 360 | 0.0 | 0.0 | 0.00 | 0.00 | 0.00 | 38 | 1009.3 |
| 20260506135507 | 58 | 360 | 0.0 | 0.0 | 0.00 | 0.00 | 0.00 | 41 | 1009.1 |
| 20260506135050 | 57 | 360 | 0.0 | 0.0 | 0.00 | 0.00 | 0.00 | 40 | 1009.1 |
| 20260506134528 | 56 | 360 | 0.0 | 0.0 | 0.00 | 0.00 | 0.00 | 38 | 1009.1 |
| 20260506134007 | 56 | 360 | 0.0 | 0.0 | 0.00 | 0.00 | 0.00 | 39 | 1009.0 |
| 20260506133543 | 56 | 360 | 0.0 | 0.0 | 0.00 | 0.00 | 0.00 | 38 | 1008.9 |
| 20260506133022 | 56 | 360 | 0.0 | 0.0 | 0.00 | 0.00 | 0.00 | 39 | 1008.8 |
| 20260506132503 | 56 | 360 | 1.0 | 0.0 | 0.00 | 0.00 | 0.00 | 40 | 1008.8 |
| 20260506132048 | 55 | 360 | 1.0 | 0.0 | 0.00 | 0.00 | 0.00 | 40 | 1008.8 |
| 20260506131529 | 54 | 360 | 1.0 | 0.0 | 0.00 | 0.00 | 0.00 | 39 | 1008.9 |
| 20260506131105 | 54 | 360 | 0.0 | 0.0 | 0.00 | 0.00 | 0.00 | 38 | 1008.6 |
| 20260506130548 | 54 | 360 | 1.0 | 0.0 | 0.00 | 0.00 | 0.00 | 39 | 1008.5 |
| 20260506130021 | 54 | 360 | 1.0 | 0.0 | 0.00 | 0.00 | 0.00 | 39 | 1008.6 |
| 20260506125501 | 53 | 360 | 1.0 | 0.0 | 0.00 | 0.00 | 0.00 | 39 | 1008.4 |
| 20260506125042 | 53 | 360 | 1.0 | 0.0 | 0.00 | 0.00 | 0.00 | 39 | 1008.4 |
| 20260506124519 | 53 | 360 | 1.0 | 0.0 | 0.00 | 0.00 | 0.00 | 39 | 1008.3 |
| 20260506124101 | 53 | 360 | 1.0 | 0.0 | 0.00 | 0.00 | 0.00 | 38 | 1008.3 |
| 20260506123545 | 53 | 360 | 1.0 | 0.0 | 0.00 | 0.00 | 0.00 | 38 | 1008.3 |
| 20260506123022 | 54 | 360 | 0.0 | 0.0 | 0.00 | 0.00 | 0.00 | 38 | 1008.0 |
| 20260506122503 | 55 | 360 | 1.0 | 0.0 | 0.00 | 0.00 | 0.00 | 38 | 1007.9 |
| 20260506122048 | 55 | 360 | 1.0 | 0.0 | 0.00 | 0.00 | 0.00 | 39 | 1007.9 |
| 20260506121529 | 55 | 360 | 1.0 | 0.0 | 0.00 | 0.00 | 0.00 | 37 | 1007.9 |
| 20260506121014 | 55 | 360 | 1.0 | 0.0 | 0.00 | 0.00 | 0.00 | 39 | 1007.9 |
| 20260506120555 | 55 | 277 | 1.0 | 0.0 | 0.00 | 0.00 | 0.00 | 37 | 1007.8 |
| 20260506120036 | 56 | 273 | 0.0 | 0.0 | 0.00 | 0.00 | 0.00 | 37 | 1007.6 |
| 20260506115514 | 57 | 53 | 0.0 | 0.0 | 0.00 | 0.00 | 0.00 | 40 | 1007.7 |
| 20260506115100 | 57 | 350 | 0.0 | 0.0 | 0.00 | 0.00 | 0.00 | 39 | 1007.7 |
| 20260506114545 | 57 | 360 | 0.0 | 0.0 | 0.00 | 0.00 | 0.00 | 39 | 1007.6 |
| 20260506114026 | 57 | 360 | 0.0 | 0.0 | 0.00 | 0.00 | 0.00 | 40 | 1007.8 |
| 20260506113502 | 57 | 360 | 1.0 | 0.0 | 0.00 | 0.00 | 0.00 | 38 | 1007.8 |
| 20260506113045 | 57 | 360 | 1.0 | 0.0 | 0.00 | 0.00 | 0.00 | 39 | 1007.7 |
| 20260506112528 | 56 | 360 | 0.0 | 0.0 | 0.00 | 0.00 | 0.00 | 39 | 1007.6 |
| 20260506112004 | 57 | 67 | 0.0 | 0.0 | 0.00 | 0.00 | 0.00 | 37 | 1007.4 |
| 20260506111551 | 58 | 66 | 0.0 | 0.0 | 0.00 | 0.00 | 0.00 | 37 | 1007.4 |
| 20260506111031 | 58 | 67 | 1.0 | 0.0 | 0.00 | 0.00 | 0.00 | 37 | 1007.3 |
| 20260506110510 | 58 | 41 | 1.0 | 0.0 | 0.00 | 0.00 | 0.00 | 37 | 1007.4 |
| 20260506110058 | 57 | 286 | 1.0 | 0.0 | 0.00 | 0.00 | 0.00 | 36 | 1007.4 |
| 20260506105529 | 57 | 267 | 1.0 | 0.0 | 0.00 | 0.00 | 0.00 | 36 | 1007.3 |
| 20260506105011 | 58 | 286 | 1.0 | 0.0 | 0.00 | 0.00 | 0.00 | 35 | 1007.3 |
| 20260506104552 | 58 | 286 | 0.0 | 0.0 | 0.00 | 0.00 | 0.00 | 35 | 1007.1 |
| 20260506104030 | 59 | 360 | 0.0 | 0.0 | 0.00 | 0.00 | 0.00 | 35 | 1007.0 |
| 20260506103511 | 59 | 360 | 0.0 | 0.0 | 0.00 | 0.00 | 0.00 | 34 | 1007.0 |
| 20260506103105 | 59 | 94 | 0.0 | 0.0 | 0.00 | 0.00 | 0.00 | 34 | 1006.9 |
| 20260506102536 | 59 | 360 | 0.0 | 0.0 | 0.00 | 0.00 | 0.00 | 34 | 1006.9 |
| 20260506102014 | 60 | 360 | 0.0 | 0.0 | 0.00 | 0.00 | 0.00 | 34 | 1006.8 |
| 20260506101618 | 59 | 97 | 0.0 | 0.0 | 0.00 | 0.00 | 0.00 | 34 | 1006.7 |
| 20260506101031 | 60 | 96 | 0.0 | 0.0 | 0.00 | 0.00 | 0.00 | 34 | 1006.6 |
| 20260506100513 | 60 | 75 | 0.0 | 0.0 | 0.00 | 0.00 | 0.00 | 33 | 1006.4 |
| 20260506100100 | 60 | 74 | 0.0 | 0.0 | 0.00 | 0.00 | 0.00 | 34 | 1006.4 |
| 20260506095537 | 59 | 303 | 0.0 | 0.0 | 0.00 | 0.00 | 0.00 | 34 | 1006.2 |
| 20260506095015 | 59 | 304 | 0.0 | 0.0 | 0.00 | 0.00 | 0.00 | 33 | 1006.2 |
| 20260506094605 | 60 | 304 | 0.0 | 0.0 | 0.00 | 0.00 | 0.00 | 31 | 1006.1 |
| 20260506094041 | 60 | 360 | 0.0 | 0.0 | 0.00 | 0.00 | 0.00 | 33 | 1006.0 |
| 20260506093525 | 60 | 324 | 0.0 | 0.0 | 0.00 | 0.00 | 0.00 | 33 | 1005.9 |
| 20260506093004 | 61 | 324 | 0.0 | 0.0 | 0.00 | 0.00 | 0.00 | 33 | 1005.9 |
| 20260506092550 | 61 | 324 | 0.0 | 0.0 | 0.00 | 0.00 | 0.00 | 32 | 1005.7 |
| 20260506092028 | 62 | 324 | 0.0 | 0.0 | 0.00 | 0.00 | 0.00 | 31 | 1005.7 |
| 20260506091510 | 63 | 324 | 0.0 | 0.0 | 0.00 | 0.00 | 0.00 | 30 | 1005.7 |
| 20260506091059 | 62 | 324 | 0.0 | 0.0 | 0.00 | 0.00 | 0.00 | 31 | 1005.7 |
| 20260506090541 | 61 | 277 | 0.0 | 0.0 | 0.00 | 0.00 | 0.00 | 32 | 1005.7 |
| 20260506090023 | 62 | 276 | 0.0 | 0.0 | 0.00 | 0.00 | 0.00 | 32 | 1005.7 |
| 20260506085603 | 61 | 301 | 0.0 | 0.0 | 0.00 | 0.00 | 0.00 | 32 | 1006.1 |
| 20260506085044 | 61 | 301 | 1.0 | 0.0 | 0.00 | 0.00 | 0.00 | 33 | 1006.2 |
| 20260506084535 | 61 | 301 | 0.0 | 0.0 | 0.00 | 0.00 | 0.00 | 32 | 1006.2 |
| 20260506084012 | 62 | 283 | 0.0 | 0.0 | 0.00 | 0.00 | 0.00 | 31 | 1006.2 |
| 20260506083558 | 62 | 283 | 0.0 | 0.0 | 0.00 | 0.00 | 0.00 | 32 | 1006.1 |
| 20260506083040 | 62 | 282 | 0.0 | 0.0 | 0.00 | 0.00 | 0.00 | 31 | 1006.1 |
| 20260506082525 | 63 | 109 | 0.0 | 0.0 | 0.00 | 0.00 | 0.00 | 31 | 1006.0 |
| 20260506082007 | 62 | 94 | 0.0 | 0.0 | 0.00 | 0.00 | 0.00 | 32 | 1006.0 |
| 20260506081557 | 62 | 273 | 1.0 | 0.0 | 0.00 | 0.00 | 0.00 | 32 | 1006.2 |
| 20260506081035 | 63 | 274 | 1.0 | 0.0 | 0.00 | 0.00 | 0.00 | 31 | 1005.9 |
| 20260506080514 | 63 | 261 | 1.0 | 0.0 | 0.00 | 0.00 | 0.00 | 30 | 1005.9 |
| 20260506073006 | 62 | 32 | 0.0 | 0.0 | 0.00 | 0.00 | 0.00 | 30 | 1006.2 |
| 20260506072548 | 62 | 360 | 0.0 | 0.0 | 0.00 | 0.00 | 0.00 | 31 | 1006.2 |
| 20260506072023 | 61 | 31 | 1.0 | 0.0 | 0.00 | 0.00 | 0.00 | 30 | 1006.2 |
| 20260506071504 | 61 | 49 | 1.0 | 0.0 | 0.00 | 0.00 | 0.00 | 31 | 1006.2 |
| 20260506071045 | 61 | 78 | 1.0 | 0.0 | 0.00 | 0.00 | 0.00 | 32 | 1006.3 |
| 20260506070528 | 61 | 360 | 0.0 | 0.0 | 0.00 | 0.00 | 0.00 | 32 | 1006.4 |
| 20260506062028 | 62 | 92 | 0.0 | 0.0 | 0.00 | 0.00 | 0.00 | 30 | 1005.7 |
| 20260506061506 | 62 | 360 | 0.0 | 0.0 | 0.00 | 0.00 | 0.00 | 30 | 1005.6 |
| 20260506061052 | 64 | 360 | 0.0 | 0.0 | 0.00 | 0.00 | 0.00 | 30 | 1005.3 |
| 20260506060537 | 64 | 360 | 1.0 | 0.0 | 0.00 | 0.00 | 0.00 | 30 | 1005.2 |
| 20260506051030 | 64 | 360 | 1.0 | 0.0 | 0.00 | 0.00 | 0.00 | 30 | 1004.9 |
| 20260506050512 | 64 | 329 | 1.0 | 0.0 | 0.00 | 0.00 | 0.00 | 30 | 1004.9 |
| 20260506050116 | 64 | 360 | 1.0 | 0.0 | 0.00 | 0.00 | 0.00 | 30 | 1004.8 |
| 20260506045016 | 66 | 360 | 0.0 | 0.0 | 0.00 | 0.00 | 0.00 | 29 | 1004.6 |
| 20260506044601 | 67 | 246 | 0.0 | 0.0 | 0.00 | 0.00 | 0.00 | 29 | 1004.4 |
| 20260506044046 | 68 | 246 | 0.0 | 0.0 | 0.00 | 0.00 | 0.00 | 30 | 1004.3 |
| 20260506043531 | 68 | 246 | 0.0 | 0.0 | 0.00 | 0.00 | 0.00 | 29 | 1004.3 |